QPF
0.00 0.00 0.00 0.00 0.00 0.00 0.00 0.00 0.00 0.00 0.00 0.00 0.00 0.00 0.00 0.00 0.00 0.00 0.00 0.00 0.00 0.00 0.00 0.00 0.00 0.00 0.00 0.00 0.00 0.00 0.00 0.00 0.00 0.00 0.00 0.00 0.00 0.00 0.00 0.00 0.00 0.00 0.00 0.00 0.00
0.00 0.00 0.00 0.00 0.00 0.00 0.00 0.00 0.00 0.00 0.00 0.00 0.00 0.00 0.00 0.00 0.00 0.00 0.00 0.00 0.00 0.00 0.00 0.00 0.00 0.00 0.00 0.00 0.00 0.00 0.00 0.00 0.00 0.00 0.00 0.00 0.00 0.00 0.00 0.00 0.00 0.00 0.00 0.00 0.00
0.00 0.00 0.00 0.00 0.00 0.00 0.00 0.00 0.00 0.00 0.00 0.00 0.00 0.00 0.00 0.00 0.00 0.00 0.00 0.00 0.00 0.00 0.00 0.00 0.00 0.00 0.00 0.00 0.00 0.00 0.00 0.00 0.00 0.00 0.00 0.00 0.00 0.00 0.00 0.00 0.00 0.00 0.00 0.00 0.00
0.00 0.00 0.00 0.00 0.00 0.00 0.00 0.00 0.00 0.00 0.00 0.00 0.00 0.00 0.00 0.00 0.00 0.00 0.00 0.00 0.00 0.00 0.00 0.00 0.00 0.00 0.00 0.00 0.00 0.00 0.00 0.00 0.00 0.00 0.00 0.00 0.00 0.00 0.00 0.00 0.00 0.00 0.00 0.00 0.00
0.00 0.00 0.00 0.00 0.00 0.00 0.00 0.00 0.00 0.00 0.00 0.00 0.00 0.00 0.00 0.00 0.00 0.00 0.00 0.00 0.00 0.00 0.00 0.00 0.00 0.00 0.00 0.00 0.00 0.00 0.00 0.00 0.00 0.00 0.00 0.00 0.00 0.00 0.00 0.00 0.00 0.00 0.00 0.00 0.00
0.00 0.00 0.00 0.00 0.00 0.00 0.00 0.00 0.00 0.00 0.00 0.00 0.00 0.00 0.00 0.00 0.00 0.00 0.00 0.00 0.00 0.00 0.00 0.00 0.00 0.00 0.00 0.00 0.00 0.00 0.00 0.00 0.00 0.00 0.00 0.00 0.00 0.00 0.00 0.00 0.00 0.00 0.00 0.00 0.00
0.00 0.00 0.00 0.00 0.00 0.00 0.00 0.00 0.00 0.00 0.00 0.00 0.00 0.00 0.00 0.00 0.00 0.00 0.00 0.00 0.00 0.00 0.00 0.00 0.00 0.00 0.00 0.00 0.00 0.00 0.00 0.00 0.00 0.00 0.00 0.00 0.00 0.00 0.00 0.00 0.00 0.00 0.00 0.00 0.00
0.00 0.00 0.00 0.00 0.00 0.00 0.00 0.00 0.00 0.00 0.00 0.00 0.00 0.00 0.00 0.00 0.00 0.00 0.00 0.00 0.00 0.00 0.00 0.00 0.00 0.00 0.00 0.00 0.00 0.00 0.00 0.00 0.00 0.00 0.00 0.00 0.00 0.00 0.00 0.00 0.00 0.00 0.00 0.00 0.00
0.00 0.00 0.00 0.00 0.00 0.00 0.00 0.00 0.00 0.00 0.00 0.00 0.00 0.00 0.00 0.00 0.00 0.00 0.00 0.00 0.00 0.00 0.00 0.00 0.00 0.00 0.00 0.00 0.00 0.00 0.00 0.00 0.00 0.00 0.00 0.00 0.00 0.00 0.00 0.00 0.00 0.00 0.00 0.00 0.00
0.00 0.00 0.00 0.00 0.00 0.00 0.00 0.00 0.00 0.00 0.00 0.00 0.00 0.00 0.00 0.00 0.00 0.00 0.00 0.00 0.00 0.00 0.00 0.00 0.00 0.00 0.00 0.00 0.00 0.00 0.00 0.00 0.00 0.00 0.00 0.00 0.00 0.00 0.00 0.00 0.00 0.00 0.00 0.00 0.00
0.00 0.00 0.00 0.00 0.00 0.00 0.00 0.00 0.00 0.00 0.00 0.00 0.00 0.00 0.00 0.00 0.00 0.00 0.00 0.00 0.00 0.00 0.00 0.00 0.00 0.00 0.00 0.00 0.00 0.00 0.00 0.00 0.00 0.00 0.00 0.00 0.00 0.00 0.00 0.00 0.00 0.00 0.00 0.00 0.00
0.00 0.00 0.00 0.00 0.00 0.00 0.00 0.00 0.00 0.00 0.00 0.00 0.00 0.00 0.00 0.00 0.00 0.00 0.00 0.00 0.00 0.00 0.00 0.00 0.00 0.00 0.00 0.00 0.00 0.00 0.00 0.00 0.00 0.00 0.00 0.00 0.00 0.00 0.00 0.00 0.00 0.00 0.00 0.00 0.00
0.00 0.00 0.00 0.00 0.00 0.00 0.00 0.00 0.00 0.00 0.00 0.00 0.00 0.00 0.00 0.00 0.00 0.00 0.00 0.00 0.00 0.00 0.00 0.00 0.00 0.00 0.00 0.00 0.00 0.00 0.00 0.00 0.00 0.00 0.00 0.00 0.00 0.00 0.00 0.00 0.00 0.00 0.00 0.00 0.00
0.00 0.00 0.00 0.00 0.00 0.00 0.00 0.00 0.00 0.00 0.00 0.00 0.00 0.00 0.00 0.00 0.00 0.00 0.00 0.00 0.00 0.00 0.00 0.00 0.00 0.00 0.00 0.00 0.00 0.00 0.00 0.00 0.00 0.00 0.00 0.00 0.00 0.00 0.00 0.00 0.00 0.00 0.00 0.00 0.00
0.00 0.00 0.00 0.00 0.00 0.00 0.00 0.00 0.00 0.00 0.00 0.00 0.00 0.00 0.00 0.00 0.00 0.00 0.00 0.00 0.00 0.00 0.00 0.00 0.00 0.00 0.00 0.00 0.00 0.00 0.00 0.00 0.00 0.00 0.00 0.00 0.00 0.00 0.00 0.00 0.00 0.00 0.00 0.00 0.00
0.00 0.00 0.00 0.00 0.00 0.00 0.00 0.00 0.00 0.00 0.00 0.00 0.00 0.00 0.00 0.00 0.00 0.00 0.00 0.00 0.00 0.00 0.00 0.00 0.00 0.00 0.00 0.00 0.00 0.00 0.00 0.00 0.00 0.00 0.00 0.00 0.00 0.00 0.00 0.00 0.00 0.00 0.00 0.00 0.00
0.00 0.00 0.00 0.00 0.00 0.00 0.00 0.00 0.00 0.00 0.00 0.00 0.00 0.00 0.00 0.00 0.00 0.00 0.00 0.00 0.00 0.00 0.00 0.00 0.00 0.00 0.00 0.00 0.00 0.00 0.00 0.00 0.00 0.00 0.00 0.00 0.00 0.00 0.00 0.00 0.00 0.00 0.00 0.00 0.00
0.00 0.00 0.00 0.00 0.00 0.00 0.00 0.00 0.00 0.00 0.00 0.00 0.00 0.00 0.00 0.00 0.00 0.00 0.00 0.00 0.00 0.00 0.00 0.00 0.00 0.00 0.00 0.00 0.00 0.00 0.00 0.00 0.00 0.00 0.00 0.00 0.00 0.00 0.00 0.00 0.00 0.00 0.00 0.00 0.00
0.00 0.00 0.00 0.00 0.00 0.00 0.00 0.00 0.00 0.00 0.00 0.00 0.00 0.00 0.00 0.00 0.00 0.00 0.00 0.00 0.00 0.00 0.00 0.00 0.00 0.00 0.00 0.00 0.00 0.00 0.00 0.00 0.00 0.00 0.00 0.00 0.00 0.00 0.00 0.00 0.00 0.00 0.00 0.00 0.00
0.00 0.00 0.00 0.00 0.00 0.00 0.00 0.00 0.00 0.00 0.00 0.00 0.00 0.00 0.00 0.00 0.00 0.00 0.00 0.00 0.00 0.00 0.00 0.00 0.00 0.00 0.00 0.00 0.00 0.00 0.00 0.00 0.00 0.00 0.00 0.00 0.00 0.00 0.00 0.00 0.00 0.00 0.00 0.00 0.00
0.00 0.00 0.00 0.00 0.00 0.00 0.00 0.00 0.00 0.00 0.00 0.00 0.00 0.00 0.00 0.00 0.00 0.00 0.00 0.00 0.00 0.00 0.00 0.00 0.00 0.00 0.00 0.00 0.00 0.00 0.00 0.00 0.00 0.00 0.01 0.00 0.00 0.00 0.00 0.00 0.00 0.00 0.00 0.00 0.00
0.00 0.00 0.00 0.00 0.00 0.00 0.00 0.00 0.00 0.00 0.00 0.00 0.00 0.00 0.00 0.00 0.00 0.00 0.00 0.00 0.00 0.00 0.00 0.00 0.00 0.00 0.00 0.00 0.00 0.00 0.00 0.00 0.01 0.03 0.06 0.02 0.01 0.00 0.00 0.00 0.00 0.00 0.00 0.00 0.00
0.00 0.00 0.00 0.00 0.00 0.00 0.00 0.00 0.00 0.00 0.00 0.00 0.00 0.00 0.00 0.00 0.00 0.00 0.00 0.00 0.00 0.00 0.00 0.00 0.00 0.00 0.00 0.00 0.01 0.00 0.00 0.00 0.07 0.21 0.13 0.07 0.04 0.00 0.00 0.01 0.00 0.00 0.00 0.00 0.00
0.00 0.00 0.00 0.00 0.00 0.00 0.00 0.00 0.00 0.00 0.00 0.00 0.00 0.00 0.00 0.00 0.00 0.00 0.00 0.00 0.00 0.00 0.00 0.00 0.00 0.00 0.00 0.00 0.01 0.06 0.02 0.01 0.09 0.20 0.07 0.04 0.00 0.00 0.00 0.00 0.00 0.00 0.00 0.00 0.00
0.00 0.00 0.00 0.00 0.00 0.00 0.00 0.00 0.00 0.00 0.00 0.00 0.00 0.00 0.00 0.00 0.00 0.00 0.00 0.00 0.00 0.00 0.00 0.00 0.00 0.00 0.00 0.00 0.00 0.01 0.00 0.00 0.04 0.04 0.06 0.02 0.00 0.00 0.02 0.00 0.00 0.00 0.00 0.00 0.00
0.00 0.00 0.00 0.00 0.00 0.00 0.00 0.00 0.00 0.00 0.00 0.00 0.00 0.00 0.00 0.00 0.00 0.00 0.00 0.00 0.00 0.00 0.00 0.00 0.01 0.02 0.01 0.00 0.00 0.00 0.00 0.00 0.00 0.00 0.00 0.00 0.00 0.01 0.01 0.00 0.00 0.00 0.00 0.00 0.00
0.00 0.00 0.00 0.00 0.00 0.00 0.00 0.00 0.00 0.00 0.00 0.00 0.00 0.00 0.00 0.00 0.00 0.00 0.00 0.00 0.00 0.00 0.01 0.06 0.06 0.08 0.07 0.00 0.00 0.01 0.00 0.00 0.00 0.00 0.00 0.00 0.00 0.00 0.00 0.00 0.00 0.01 0.00 0.00 0.00
MSLP
1016.26 1015.96 1015.76 1015.57 1015.38 1015.21 1014.96 1014.81 1014.70 1014.65 1014.55 1014.42 1014.24 1014.02 1013.71 1013.32 1012.46 1012.15 1012.74 1013.44 1013.07 1012.59 1012.34 1011.54 1010.95 1010.68 1010.50 1010.78 1010.96 1010.97 1011.07 1010.64 1010.89 1011.20 1011.57 1012.03 1012.37 1012.65 1013.11 1013.40 1013.61 1014.13 1014.84 1015.88 1016.59
1016.26 1015.97 1015.74 1015.56 1015.40 1015.25 1014.98 1014.81 1014.72 1014.61 1014.53 1014.40 1014.26 1014.04 1013.77 1013.52 1012.88 1012.49 1013.41 1013.08 1012.78 1012.47 1011.78 1011.22 1010.75 1010.65 1010.63 1010.80 1011.04 1011.10 1011.07 1011.22 1011.52 1011.71 1011.95 1012.14 1012.54 1012.59 1013.12 1013.25 1013.58 1014.25 1015.16 1016.04 1016.60
1016.24 1016.00 1015.74 1015.56 1015.40 1015.25 1015.09 1014.91 1014.74 1014.60 1014.51 1014.41 1014.26 1014.08 1013.83 1013.65 1013.07 1012.92 1013.04 1012.73 1012.49 1012.29 1011.91 1011.54 1011.07 1010.77 1010.77 1010.94 1011.22 1011.27 1011.50 1011.67 1012.09 1012.42 1012.66 1012.61 1012.73 1012.81 1013.05 1013.18 1013.19 1013.77 1014.67 1015.81 1016.56
1016.22 1015.97 1015.74 1015.50 1015.39 1015.25 1015.07 1014.90 1014.72 1014.61 1014.52 1014.40 1014.23 1013.99 1013.74 1013.47 1013.42 1013.07 1012.78 1012.56 1012.39 1012.09 1011.74 1011.35 1011.06 1010.85 1010.83 1011.01 1011.30 1011.66 1011.94 1012.16 1012.39 1012.82 1013.06 1013.03 1012.76 1012.90 1013.02 1013.10 1013.10 1013.53 1014.17 1015.27 1016.18
1016.27 1016.02 1015.80 1015.63 1015.46 1015.24 1015.06 1014.87 1014.71 1014.59 1014.50 1014.39 1014.17 1013.94 1013.73 1013.27 1013.01 1012.68 1012.71 1012.49 1012.09 1011.79 1011.69 1011.46 1011.07 1011.08 1011.04 1011.29 1011.45 1011.55 1012.12 1012.47 1012.70 1013.10 1013.36 1013.33 1013.20 1013.26 1012.61 1012.54 1012.95 1013.59 1014.28 1015.02 1015.80
1016.35 1016.09 1015.89 1015.71 1015.47 1015.22 1014.96 1014.77 1014.66 1014.54 1014.49 1014.35 1014.17 1014.10 1013.72 1013.11 1012.91 1012.77 1012.79 1012.59 1012.49 1012.08 1011.96 1011.75 1011.81 1011.66 1011.50 1011.72 1011.90 1012.04 1012.23 1012.38 1012.73 1013.14 1013.24 1013.42 1013.19 1013.18 1012.10 1012.12 1012.90 1013.72 1014.44 1014.90 1015.50
1016.39 1016.15 1015.94 1015.68 1015.42 1015.21 1015.03 1014.85 1014.67 1014.51 1014.39 1014.29 1014.19 1013.84 1013.32 1013.33 1012.87 1012.86 1012.72 1012.84 1012.70 1012.54 1012.25 1012.43 1012.35 1012.16 1012.00 1012.01 1012.31 1012.21 1012.42 1012.26 1012.56 1012.95 1013.26 1013.51 1012.98 1012.28 1011.82 1012.36 1012.94 1013.75 1014.31 1014.84 1015.41
1016.66 1016.27 1015.91 1015.56 1015.31 1015.14 1014.97 1014.74 1014.56 1014.42 1014.23 1014.10 1014.05 1013.72 1013.23 1013.05 1012.89 1012.76 1012.63 1012.56 1012.65 1012.62 1012.64 1012.66 1012.60 1012.51 1012.44 1012.50 1012.39 1012.35 1012.22 1012.15 1012.15 1012.77 1013.33 1013.68 1012.51 1011.32 1011.58 1012.44 1013.10 1013.56 1014.23 1014.73 1015.38
1016.79 1016.38 1016.00 1015.62 1015.27 1015.02 1014.76 1014.54 1014.35 1014.19 1014.10 1013.96 1013.95 1013.51 1013.20 1013.16 1013.02 1012.88 1012.90 1012.79 1012.73 1012.74 1012.78 1012.76 1012.71 1012.66 1012.78 1012.54 1012.31 1012.20 1012.14 1012.00 1012.27 1012.50 1013.11 1013.53 1012.35 1011.72 1011.69 1012.21 1012.67 1013.11 1013.85 1014.51 1015.15
1017.04 1016.50 1015.96 1015.52 1015.18 1014.88 1014.57 1014.31 1014.03 1014.12 1013.89 1013.55 1013.32 1013.61 1013.16 1013.17 1013.07 1013.06 1012.88 1013.08 1012.82 1012.68 1012.83 1012.87 1012.77 1012.79 1012.59 1012.46 1012.88 1012.78 1012.63 1012.42 1012.51 1012.62 1012.95 1012.91 1011.72 1011.54 1011.22 1011.46 1011.98 1012.59 1013.20 1013.94 1014.66
1017.17 1016.64 1016.11 1015.61 1015.07 1014.65 1014.16 1014.18 1014.57 1014.45 1013.54 1013.66 1013.46 1013.17 1013.10 1013.17 1013.24 1012.94 1013.05 1012.91 1012.75 1012.82 1012.64 1012.60 1013.02 1012.78 1012.81 1013.15 1013.24 1013.27 1013.21 1013.01 1012.28 1012.71 1012.98 1012.39 1011.35 1010.44 1010.28 1010.45 1011.20 1012.13 1012.64 1013.22 1013.91
1017.05 1016.46 1015.91 1015.46 1014.97 1014.46 1014.43 1014.46 1015.72 1016.02 1014.65 1013.63 1013.41 1013.31 1013.38 1013.53 1013.23 1012.98 1012.94 1012.99 1012.62 1012.59 1012.46 1012.89 1012.93 1012.91 1013.23 1013.45 1013.58 1013.48 1013.40 1012.97 1012.62 1012.84 1013.18 1012.09 1011.01 1009.62 1009.31 1009.61 1010.28 1011.33 1012.23 1012.81 1013.43
1017.02 1016.42 1015.77 1015.31 1014.90 1014.63 1014.96 1015.91 1015.99 1015.76 1015.11 1013.80 1013.36 1013.27 1013.44 1013.61 1013.15 1013.13 1013.20 1013.00 1012.76 1012.57 1012.56 1012.92 1013.05 1013.26 1013.52 1013.52 1013.53 1013.44 1013.42 1013.42 1013.86 1013.44 1012.50 1012.45 1010.88 1009.43 1009.54 1009.81 1010.13 1010.77 1011.57 1012.34 1013.05
1017.20 1016.49 1015.75 1015.14 1015.18 1015.10 1015.62 1016.07 1015.88 1015.80 1014.96 1014.01 1013.42 1013.39 1013.41 1013.34 1013.39 1013.32 1013.51 1013.67 1013.02 1012.91 1012.84 1012.94 1013.26 1013.46 1013.66 1013.64 1013.56 1013.84 1013.82 1014.14 1014.34 1014.44 1013.88 1012.91 1011.84 1009.71 1009.55 1009.83 1010.33 1010.78 1011.49 1012.13 1012.70
1017.42 1016.73 1016.12 1015.53 1015.55 1015.66 1016.41 1016.03 1015.89 1015.79 1015.01 1013.80 1013.33 1013.31 1013.22 1013.46 1013.39 1013.49 1013.73 1013.57 1013.29 1013.00 1013.35 1012.84 1013.25 1013.58 1013.75 1013.50 1013.58 1013.96 1014.23 1014.44 1014.70 1014.99 1014.54 1012.97 1012.88 1009.94 1009.35 1009.50 1009.76 1010.20 1010.83 1011.58 1012.28
1017.62 1016.88 1016.13 1015.64 1015.71 1016.48 1016.22 1016.00 1015.86 1015.56 1014.14 1013.42 1013.07 1013.15 1013.15 1013.03 1013.05 1013.24 1013.54 1013.64 1013.52 1013.40 1013.21 1013.17 1013.54 1013.72 1013.70 1013.78 1013.98 1014.20 1014.32 1013.97 1014.76 1015.16 1014.84 1012.66 1012.44 1010.53 1009.35 1009.17 1009.42 1009.68 1010.34 1011.00 1011.98
1017.71 1017.20 1016.51 1016.02 1016.37 1016.29 1016.16 1015.91 1015.66 1014.51 1013.49 1013.40 1013.12 1013.04 1013.04 1012.84 1012.78 1013.02 1013.13 1013.30 1013.38 1013.45 1013.12 1013.06 1013.38 1013.68 1014.04 1014.14 1014.30 1014.64 1014.81 1015.00 1015.30 1015.43 1014.05 1012.91 1012.52 1010.07 1008.85 1008.95 1009.29 1009.82 1010.26 1010.90 1011.74
1017.45 1017.15 1016.61 1016.35 1016.27 1016.19 1015.98 1015.66 1014.98 1013.56 1013.09 1013.23 1013.15 1012.92 1012.99 1012.80 1012.78 1012.78 1012.91 1012.66 1012.31 1012.99 1013.34 1013.26 1013.39 1013.76 1014.10 1014.20 1014.43 1014.65 1015.12 1015.68 1015.51 1014.93 1013.87 1012.99 1011.73 1009.28 1008.54 1009.11 1009.65 1010.08 1010.56 1011.08 1011.96
1016.98 1016.40 1016.06 1016.17 1016.16 1016.09 1015.84 1015.21 1014.04 1013.69 1013.57 1013.42 1012.90 1012.90 1012.64 1012.90 1013.12 1012.70 1012.35 1012.08 1012.12 1012.61 1013.15 1012.96 1013.20 1013.70 1014.05 1014.32 1014.74 1015.12 1015.37 1015.29 1015.37 1014.79 1014.22 1012.17 1010.27 1008.93 1008.94 1009.59 1009.94 1010.37 1010.78 1011.33 1011.99
1017.74 1016.46 1015.70 1015.88 1015.96 1015.96 1015.72 1014.62 1013.88 1013.86 1013.85 1013.75 1013.44 1012.90 1012.72 1012.64 1012.94 1012.67 1011.93 1011.62 1012.13 1012.56 1012.98 1013.22 1013.62 1013.62 1014.65 1014.94 1015.03 1015.18 1015.59 1015.69 1016.00 1016.14 1014.24 1011.71 1010.40 1009.43 1009.51 1009.81 1010.11 1010.56 1010.86 1011.32 1012.02
1017.81 1016.68 1015.95 1015.77 1015.95 1015.76 1015.22 1014.31 1014.14 1014.19 1014.27 1014.17 1013.70 1013.35 1013.04 1012.79 1012.70 1012.77 1012.14 1011.94 1012.25 1013.11 1013.54 1013.78 1014.10 1014.38 1014.71 1014.80 1014.59 1015.71 1015.57 1015.86 1016.18 1016.59 1015.32 1013.38 1010.95 1009.52 1009.74 1009.90 1010.47 1010.95 1011.16 1011.39 1012.10
1017.98 1016.87 1015.71 1015.61 1016.01 1014.94 1014.62 1014.52 1015.01 1014.51 1014.69 1014.50 1014.39 1014.02 1013.66 1013.49 1013.23 1013.09 1012.53 1012.42 1012.67 1013.28 1013.90 1014.07 1014.36 1014.29 1013.86 1013.86 1014.02 1014.50 1014.88 1015.25 1016.17 1016.45 1015.85 1014.65 1011.18 1009.66 1010.11 1010.78 1011.72 1012.15 1012.21 1012.54 1012.80
1018.73 1016.96 1015.60 1015.50 1015.52 1014.86 1014.64 1014.56 1014.62 1014.71 1014.68 1014.66 1014.45 1014.23 1014.14 1014.16 1013.98 1013.07 1012.93 1013.14 1013.48 1014.01 1014.23 1014.30 1014.51 1014.48 1014.15 1014.65 1014.56 1014.77 1015.09 1015.52 1016.17 1016.84 1015.58 1014.86 1011.84 1010.63 1011.26 1012.92 1013.45 1013.74 1013.95 1014.17 1014.93
1019.38 1017.40 1015.94 1015.65 1015.50 1015.52 1015.30 1014.86 1014.86 1014.70 1014.81 1014.71 1014.57 1014.59 1014.67 1014.38 1014.33 1013.44 1013.39 1013.41 1013.92 1014.63 1015.07 1015.30 1014.97 1014.71 1014.18 1013.74 1014.13 1015.04 1015.46 1015.63 1016.11 1015.91 1014.87 1013.87 1012.18 1012.49 1013.37 1014.46 1015.51 1015.83 1015.72 1016.39 1017.31
1019.36 1017.80 1017.56 1016.52 1015.98 1016.21 1015.94 1015.66 1015.40 1015.18 1014.93 1014.93 1014.74 1014.75 1014.79 1014.58 1014.23 1013.82 1013.75 1014.01 1014.41 1015.05 1015.67 1016.37 1015.79 1015.32 1014.53 1014.32 1014.36 1014.24 1014.40 1014.86 1014.94 1014.69 1014.95 1013.07 1014.11 1014.43 1016.07 1017.10 1017.91 1018.09 1018.15 1018.66 1019.47
1019.50 1018.42 1017.92 1017.37 1016.96 1016.66 1016.43 1015.65 1015.41 1015.11 1015.06 1014.95 1014.82 1014.66 1014.70 1014.65 1014.55 1014.45 1014.62 1015.07 1015.07 1015.66 1016.22 1017.03 1016.55 1016.16 1014.86 1014.98 1014.74 1013.61 1014.00 1013.99 1014.05 1014.00 1014.48 1015.03 1015.52 1017.07 1017.92 1018.81 1019.66 1020.30 1020.43 1020.70 1021.25
1019.07 1018.65 1018.63 1017.76 1017.29 1016.85 1016.16 1015.69 1015.26 1015.25 1014.96 1014.96 1015.02 1014.87 1014.78 1014.74 1014.76 1014.76 1014.97 1015.14 1015.30 1015.50 1015.97 1016.67 1016.78 1016.53 1014.45 1014.81 1014.80 1013.71 1012.89 1013.14 1013.42 1014.92 1015.98 1016.64 1018.74 1019.35 1019.70 1020.74 1021.76 1022.09 1022.38 1022.58 1023.01
Thickness
5693 5697 5700 5702 5704 5707 5710 5713 5715 5716 5717 5718 5720 5722 5725 5728 5734 5736 5724 5723 5726 5729 5731 5735 5736 5734 5733 5722 5721 5720 5694 5696 5697 5694 5689 5691 5685 5687 5684 5675 5675 5673 5667 5658 5652
5695 5698 5701 5704 5706 5709 5712 5714 5716 5717 5718 5720 5721 5723 5725 5727 5732 5730 5726 5727 5729 5731 5734 5732 5730 5731 5721 5719 5716 5707 5696 5696 5700 5698 5693 5694 5688 5689 5679 5676 5673 5668 5663 5656 5651
5696 5699 5702 5705 5708 5710 5712 5715 5717 5718 5720 5721 5723 5724 5726 5727 5726 5725 5729 5731 5732 5732 5733 5733 5732 5728 5717 5718 5712 5708 5693 5701 5697 5694 5692 5690 5687 5689 5680 5671 5678 5672 5663 5654 5648
5697 5701 5704 5707 5709 5711 5714 5716 5718 5719 5721 5722 5724 5726 5727 5729 5709 5728 5731 5732 5732 5733 5732 5730 5727 5720 5714 5708 5712 5699 5700 5699 5695 5691 5687 5683 5690 5682 5680 5676 5682 5678 5671 5658 5650
5698 5701 5705 5708 5710 5712 5715 5717 5719 5720 5722 5723 5725 5727 5729 5724 5720 5732 5731 5731 5733 5734 5727 5724 5722 5718 5709 5708 5708 5703 5697 5696 5694 5688 5683 5684 5678 5676 5681 5687 5683 5676 5668 5659 5652
5699 5702 5705 5708 5711 5714 5716 5719 5720 5722 5723 5724 5725 5726 5726 5717 5730 5730 5729 5730 5727 5728 5723 5722 5715 5715 5710 5703 5698 5700 5697 5694 5691 5685 5685 5677 5677 5677 5686 5689 5678 5670 5661 5658 5653
5700 5703 5706 5709 5713 5715 5717 5719 5721 5723 5724 5725 5725 5726 5725 5717 5730 5729 5729 5725 5725 5722 5718 5717 5714 5709 5706 5698 5699 5698 5684 5687 5685 5684 5680 5675 5669 5675 5686 5681 5672 5665 5660 5655 5649
5700 5704 5708 5712 5715 5717 5719 5721 5722 5724 5725 5725 5725 5726 5718 5729 5729 5728 5727 5725 5724 5722 5717 5715 5712 5706 5699 5698 5693 5685 5688 5677 5687 5681 5675 5671 5659 5692 5686 5671 5664 5661 5655 5650 5643
5700 5704 5708 5712 5715 5717 5720 5722 5723 5724 5724 5725 5724 5722 5714 5727 5722 5725 5723 5717 5717 5717 5714 5712 5707 5699 5693 5684 5683 5687 5672 5681 5679 5681 5673 5662 5661 5680 5680 5668 5662 5659 5652 5646 5639
5698 5703 5709 5713 5715 5718 5720 5722 5723 5722 5724 5725 5725 5712 5719 5714 5719 5719 5721 5715 5710 5710 5703 5700 5695 5686 5687 5679 5660 5666 5667 5670 5666 5672 5665 5659 5666 5672 5675 5670 5662 5656 5651 5644 5636
5696 5701 5706 5710 5715 5718 5721 5721 5715 5712 5721 5711 5711 5713 5715 5717 5718 5715 5714 5710 5709 5701 5692 5697 5680 5679 5681 5677 5672 5667 5661 5657 5675 5666 5657 5657 5667 5676 5676 5669 5658 5650 5648 5643 5638
5696 5702 5706 5709 5713 5717 5717 5713 5700 5697 5703 5713 5712 5711 5711 5709 5704 5708 5711 5700 5700 5689 5697 5683 5675 5680 5678 5672 5665 5662 5654 5659 5670 5665 5654 5658 5664 5677 5682 5674 5661 5649 5644 5640 5635
5694 5699 5704 5708 5710 5711 5706 5697 5697 5698 5695 5704 5708 5706 5704 5703 5701 5699 5699 5697 5692 5688 5688 5675 5677 5676 5669 5666 5662 5663 5658 5655 5642 5647 5656 5648 5654 5675 5670 5665 5660 5654 5646 5640 5631
5690 5696 5702 5707 5706 5704 5695 5694 5693 5692 5686 5693 5697 5699 5700 5700 5691 5698 5694 5686 5686 5680 5679 5676 5672 5668 5663 5659 5662 5645 5650 5643 5635 5623 5618 5643 5612 5666 5657 5654 5647 5642 5637 5632 5628
5684 5690 5694 5699 5696 5693 5687 5689 5689 5685 5654 5691 5693 5701 5697 5688 5688 5686 5687 5682 5675 5679 5672 5672 5664 5659 5654 5660 5658 5649 5642 5633 5629 5614 5613 5632 5605 5647 5656 5652 5649 5638 5634 5628 5622
5679 5685 5690 5691 5690 5683 5684 5685 5683 5672 5644 5683 5690 5686 5683 5684 5685 5684 5679 5677 5673 5667 5666 5665 5661 5656 5656 5653 5647 5641 5634 5635 5621 5609 5590 5626 5609 5620 5642 5645 5644 5640 5629 5624 5614
5674 5678 5682 5683 5679 5679 5679 5678 5667 5657 5684 5676 5678 5680 5678 5676 5678 5674 5671 5664 5656 5651 5654 5659 5656 5651 5645 5638 5636 5627 5620 5598 5596 5582 5593 5615 5599 5619 5646 5639 5637 5626 5620 5614 5606
5670 5672 5674 5675 5674 5674 5674 5670 5654 5680 5679 5675 5672 5672 5661 5669 5668 5667 5660 5656 5669 5656 5640 5636 5624 5638 5637 5636 5627 5625 5614 5590 5588 5594 5596 5602 5589 5617 5635 5626 5621 5614 5609 5604 5595
5666 5671 5671 5670 5669 5669 5666 5654 5665 5667 5668 5662 5669 5658 5662 5659 5651 5656 5654 5658 5661 5649 5636 5636 5636 5631 5629 5626 5620 5609 5595 5603 5589 5598 5580 5599 5620 5629 5620 5611 5607 5599 5593 5589 5583
5652 5661 5666 5664 5663 5660 5654 5654 5664 5661 5658 5657 5649 5661 5652 5654 5645 5644 5654 5660 5648 5647 5638 5632 5613 5629 5610 5611 5607 5599 5597 5584 5575 5559 5576 5603 5606 5602 5603 5600 5598 5591 5584 5581 5576
5643 5646 5655 5656 5654 5650 5641 5655 5656 5653 5648 5644 5646 5642 5645 5641 5643 5636 5640 5645 5643 5627 5625 5619 5609 5607 5604 5597 5596 5579 5579 5577 5573 5562 5557 5562 5584 5608 5601 5595 5584 5578 5579 5577 5565
5631 5631 5649 5649 5637 5646 5641 5643 5632 5641 5637 5633 5630 5630 5628 5629 5624 5622 5628 5635 5631 5617 5607 5609 5597 5589 5604 5597 5595 5588 5585 5576 5552 5557 5550 5549 5572 5606 5590 5579 5569 5562 5562 5555 5549
5614 5625 5639 5637 5622 5631 5635 5634 5633 5628 5626 5623 5621 5622 5623 5615 5604 5616 5619 5614 5614 5605 5599 5596 5582 5569 5584 5580 5579 5571 5573 5568 5552 5529 5543 5545 5567 5589 5574 5548 5545 5542 5536 5530 5516
5599 5606 5621 5623 5622 5617 5614 5618 5616 5619 5614 5616 5612 5608 5603 5601 5601 5603 5605 5603 5597 5589 5579 5576 5578 5577 5575 5584 5576 5548 5544 5550 5540 5534 5549 5544 5567 5570 5547 5533 5516 5508 5510 5496 5480
5586 5594 5593 5597 5604 5599 5600 5602 5598 5598 5601 5602 5598 5595 5590 5584 5588 5590 5593 5589 5582 5575 5569 5557 5554 5563 5568 5567 5562 5562 5557 5553 5539 5542 5535 5564 5546 5550 5500 5490 5478 5479 5478 5466 5451
5568 5575 5579 5583 5586 5584 5583 5590 5587 5590 5589 5586 5582 5588 5583 5575 5574 5569 5570 5566 5566 5557 5551 5535 5535 5530 5548 5547 5545 5551 5552 5554 5551 5550 5536 5537 5536 5495 5481 5465 5452 5445 5441 5433 5423
5560 5562 5558 5566 5570 5571 5576 5578 5579 5576 5579 5577 5571 5567 5563 5564 5565 5563 5559 5556 5554 5549 5530 5519 5515 5513 5546 5542 5531 5542 5556 5553 5557 5520 5515 5529 5467 5456 5450 5436 5420 5414 5408 5402 5393